Year,Month,Day,Hour,Minute,Value (Times are PST for temperature in C)
2014,07,11,00,00,18.40
2014,07,11,00,01,18.40
2014,07,11,00,02,18.40
2014,07,11,00,03,18.30
2014,07,11,00,04,18.30
2014,07,11,00,05,18.30
2014,07,11,00,06,18.30
2014,07,11,00,07,18.30
2014,07,11,00,08,18.30
2014,07,11,00,09,18.20
2014,07,11,00,10,18.20
2014,07,11,00,11,18.20
2014,07,11,00,12,18.20
2014,07,11,00,13,18.20
2014,07,11,00,14,18.20
2014,07,11,00,15,18.10
2014,07,11,00,16,18.10
2014,07,11,00,17,18.10
2014,07,11,00,18,18.10
2014,07,11,00,19,18.10
2014,07,11,00,20,18.10
2014,07,11,00,21,18.10
2014,07,11,00,22,18.10
2014,07,11,00,23,18.10
2014,07,11,00,24,18.00
2014,07,11,00,25,18.00
2014,07,11,00,26,18.00
2014,07,11,00,27,18.00
2014,07,11,00,28,18.00
2014,07,11,00,29,17.90
2014,07,11,00,30,17.90
2014,07,11,00,31,17.90
2014,07,11,00,32,17.90
2014,07,11,00,33,17.90
2014,07,11,00,34,17.90
2014,07,11,00,35,17.90
2014,07,11,00,36,17.90
2014,07,11,00,37,17.80
2014,07,11,00,38,17.80
2014,07,11,00,39,17.80
2014,07,11,00,40,17.80
2014,07,11,00,41,17.80
2014,07,11,00,42,17.80
2014,07,11,00,43,17.80
2014,07,11,00,44,17.80
2014,07,11,00,45,17.80
2014,07,11,00,46,17.80
2014,07,11,00,47,17.80
2014,07,11,00,48,17.80
2014,07,11,00,49,17.80
2014,07,11,00,50,17.80
2014,07,11,00,51,17.70
2014,07,11,00,52,17.70
2014,07,11,00,53,17.70
2014,07,11,00,54,17.70
2014,07,11,00,55,17.70
2014,07,11,00,56,17.70
2014,07,11,00,57,17.60
2014,07,11,00,58,17.60
2014,07,11,00,59,17.60
2014,07,11,01,00,17.60
2014,07,11,01,01,17.60
2014,07,11,01,02,17.50
2014,07,11,01,03,17.50
2014,07,11,01,04,17.50
2014,07,11,01,05,17.40
2014,07,11,01,06,17.40
2014,07,11,01,07,17.40
2014,07,11,01,08,17.40
2014,07,11,01,09,17.40
2014,07,11,01,10,17.40
2014,07,11,01,11,17.30
2014,07,11,01,12,17.30
2014,07,11,01,13,17.30
2014,07,11,01,14,17.30
2014,07,11,01,15,17.20
2014,07,11,01,16,17.20
2014,07,11,01,17,17.20
2014,07,11,01,18,17.20
2014,07,11,01,19,17.20
2014,07,11,01,20,17.20
2014,07,11,01,21,17.20
2014,07,11,01,22,17.20
2014,07,11,01,23,17.20
2014,07,11,01,24,17.20
2014,07,11,01,25,17.20
2014,07,11,01,26,17.20
2014,07,11,01,27,17.20
2014,07,11,01,28,17.20
2014,07,11,01,29,17.20
2014,07,11,01,30,17.10
2014,07,11,01,31,17.10
2014,07,11,01,32,17.10
2014,07,11,01,33,17.10
2014,07,11,01,34,17.10
2014,07,11,01,35,17.10
2014,07,11,01,36,17.10
2014,07,11,01,37,17.10
2014,07,11,01,38,17.10
2014,07,11,01,39,17.10
2014,07,11,01,40,17.00
2014,07,11,01,41,17.00
2014,07,11,01,42,17.00
2014,07,11,01,43,17.00
2014,07,11,01,44,17.00
2014,07,11,01,45,16.90
2014,07,11,01,46,16.90
2014,07,11,01,47,16.90
2014,07,11,01,48,16.90
2014,07,11,01,49,16.90
2014,07,11,01,50,16.90
2014,07,11,01,51,16.90
2014,07,11,01,52,16.80
2014,07,11,01,53,16.80
2014,07,11,01,54,16.80
2014,07,11,01,55,16.80
2014,07,11,01,56,16.80
2014,07,11,01,57,16.80
2014,07,11,01,58,16.80
2014,07,11,01,59,16.80
2014,07,11,02,00,16.80
2014,07,11,02,01,16.80
2014,07,11,02,02,16.80
2014,07,11,02,03,16.70
2014,07,11,02,04,16.70
2014,07,11,02,05,16.70
2014,07,11,02,06,16.70
2014,07,11,02,07,16.70
2014,07,11,02,08,16.70
2014,07,11,02,09,16.70
2014,07,11,02,10,16.70
2014,07,11,02,11,16.70
2014,07,11,02,12,16.70
2014,07,11,02,13,16.70
2014,07,11,02,14,16.70
2014,07,11,02,15,16.70
2014,07,11,02,16,16.70
2014,07,11,02,17,16.70
2014,07,11,02,18,16.70
2014,07,11,02,19,16.70
2014,07,11,02,20,16.70
2014,07,11,02,21,16.70
2014,07,11,02,22,16.70
2014,07,11,02,23,16.70
2014,07,11,02,24,16.70
2014,07,11,02,25,16.70
2014,07,11,02,26,16.60
2014,07,11,02,27,16.60
2014,07,11,02,28,16.60
2014,07,11,02,29,16.60
2014,07,11,02,30,16.60
2014,07,11,02,31,16.60
2014,07,11,02,32,16.60
2014,07,11,02,33,16.60
2014,07,11,02,34,16.60
2014,07,11,02,35,16.60
2014,07,11,02,36,16.50
2014,07,11,02,37,16.50
2014,07,11,02,38,16.50
2014,07,11,02,39,16.50
2014,07,11,02,40,16.50
2014,07,11,02,41,16.40
2014,07,11,02,42,16.40
2014,07,11,02,43,16.40
2014,07,11,02,44,16.40
2014,07,11,02,45,16.40
2014,07,11,02,46,16.40
2014,07,11,02,47,16.40
2014,07,11,02,48,16.40
2014,07,11,02,49,16.40
2014,07,11,02,50,16.40
2014,07,11,02,51,16.40
2014,07,11,02,52,16.40
2014,07,11,02,53,16.40
2014,07,11,02,54,16.30
2014,07,11,02,55,16.30
2014,07,11,02,56,16.30
2014,07,11,02,57,16.30
2014,07,11,02,58,16.30
2014,07,11,02,59,16.30
2014,07,11,03,00,16.30
2014,07,11,03,01,16.30
2014,07,11,03,02,16.30
2014,07,11,03,03,16.20
2014,07,11,03,04,16.20
2014,07,11,03,05,16.20
2014,07,11,03,06,16.20
2014,07,11,03,07,16.20
2014,07,11,03,08,16.20
2014,07,11,03,09,16.20
2014,07,11,03,10,16.20
2014,07,11,03,11,16.10
2014,07,11,03,12,16.10
2014,07,11,03,13,16.10
2014,07,11,03,14,16.10
2014,07,11,03,15,16.10
2014,07,11,03,16,16.10
2014,07,11,03,17,16.00
2014,07,11,03,18,16.00
2014,07,11,03,19,16.00
2014,07,11,03,20,16.00
2014,07,11,03,21,16.00
2014,07,11,03,22,16.00
2014,07,11,03,23,16.00
2014,07,11,03,24,15.90
2014,07,11,03,25,15.90
2014,07,11,03,26,15.90
2014,07,11,03,27,15.90
2014,07,11,03,28,15.90
2014,07,11,03,29,15.90
2014,07,11,03,30,15.90
2014,07,11,03,31,15.90
2014,07,11,03,32,15.90
2014,07,11,03,33,15.90
2014,07,11,03,34,15.90
2014,07,11,03,35,15.80
2014,07,11,03,36,15.80
2014,07,11,03,37,15.80
2014,07,11,03,38,15.80
2014,07,11,03,39,15.80
2014,07,11,03,40,15.80
2014,07,11,03,41,15.80
2014,07,11,03,42,15.80
2014,07,11,03,43,15.80
2014,07,11,03,44,15.80
2014,07,11,03,45,15.70
2014,07,11,03,46,15.70
2014,07,11,03,47,15.70
2014,07,11,03,48,15.70
2014,07,11,03,49,15.80
2014,07,11,03,50,15.80
2014,07,11,03,51,15.80
2014,07,11,03,52,15.80
2014,07,11,03,53,15.80
2014,07,11,03,54,15.80
2014,07,11,03,55,15.80
2014,07,11,03,56,15.80
2014,07,11,03,57,15.80
2014,07,11,03,58,15.80
2014,07,11,03,59,15.80
2014,07,11,04,00,15.80
2014,07,11,04,01,15.80
2014,07,11,04,02,15.80
2014,07,11,04,03,15.80
2014,07,11,04,04,15.80
2014,07,11,04,05,15.70
2014,07,11,04,06,15.70
2014,07,11,04,07,15.70
2014,07,11,04,08,15.70
2014,07,11,04,09,15.70
2014,07,11,04,10,15.70
2014,07,11,04,11,15.70
2014,07,11,04,12,15.60
2014,07,11,04,13,15.60
2014,07,11,04,14,15.60
2014,07,11,04,15,15.60
2014,07,11,04,16,15.60
2014,07,11,04,17,15.60
2014,07,11,04,18,15.60
2014,07,11,04,19,15.60
2014,07,11,04,20,15.60
2014,07,11,04,21,15.60
2014,07,11,04,22,15.60
2014,07,11,04,23,15.60
2014,07,11,04,24,15.50
2014,07,11,04,25,15.50
2014,07,11,04,26,15.50
2014,07,11,04,27,15.50
2014,07,11,04,28,15.50
2014,07,11,04,29,15.50
2014,07,11,04,30,15.50
2014,07,11,04,31,15.50
2014,07,11,04,32,15.50
2014,07,11,04,33,15.50
2014,07,11,04,34,15.50
2014,07,11,04,35,15.50
2014,07,11,04,36,15.50
2014,07,11,04,37,15.50
2014,07,11,04,38,15.50
2014,07,11,04,39,15.50
2014,07,11,04,40,15.50
2014,07,11,04,41,15.50
2014,07,11,04,42,15.50
2014,07,11,04,43,15.50
2014,07,11,04,44,15.40
2014,07,11,04,45,15.40
2014,07,11,04,46,15.40
2014,07,11,04,47,15.40
2014,07,11,04,48,15.40
2014,07,11,04,49,15.40
2014,07,11,04,50,15.40
2014,07,11,04,51,15.40
2014,07,11,04,52,15.40
2014,07,11,04,53,15.30
2014,07,11,04,54,15.30
2014,07,11,04,55,15.30
2014,07,11,04,56,15.30
2014,07,11,04,57,15.30
2014,07,11,04,58,15.30
2014,07,11,04,59,15.30
2014,07,11,05,00,15.30
2014,07,11,05,01,15.20
2014,07,11,05,02,15.20
2014,07,11,05,03,15.20
2014,07,11,05,04,15.20
2014,07,11,05,05,15.20
2014,07,11,05,06,15.20
2014,07,11,05,07,15.20
2014,07,11,05,08,15.20
2014,07,11,05,09,15.20
2014,07,11,05,10,15.20
2014,07,11,05,11,15.20
2014,07,11,05,12,15.20
2014,07,11,05,13,15.20
2014,07,11,05,14,15.20
2014,07,11,05,15,15.20
2014,07,11,05,16,15.20
2014,07,11,05,17,15.20
2014,07,11,05,18,15.10
2014,07,11,05,19,15.10
2014,07,11,05,20,15.10
2014,07,11,05,21,15.20
2014,07,11,05,22,15.10
2014,07,11,05,23,15.10
2014,07,11,05,24,15.10
2014,07,11,05,25,15.10
2014,07,11,05,26,15.10
2014,07,11,05,27,15.10
2014,07,11,05,28,15.10
2014,07,11,05,29,15.10
2014,07,11,05,30,15.10
2014,07,11,05,31,15.00
2014,07,11,05,32,15.00
2014,07,11,05,33,15.00
2014,07,11,05,34,15.10
2014,07,11,05,35,15.10
2014,07,11,05,36,15.10
2014,07,11,05,37,15.10
2014,07,11,05,38,15.00
2014,07,11,05,39,15.00
2014,07,11,05,40,15.00
2014,07,11,05,41,15.00
2014,07,11,05,42,15.00
2014,07,11,05,43,15.00
2014,07,11,05,44,14.90
2014,07,11,05,45,14.90
2014,07,11,05,46,14.90
2014,07,11,05,47,15.00
2014,07,11,05,48,15.00
2014,07,11,05,49,15.00
2014,07,11,05,50,15.00
2014,07,11,05,51,15.00
2014,07,11,05,52,15.00
2014,07,11,05,53,15.00
2014,07,11,05,54,15.10
2014,07,11,05,55,15.00
2014,07,11,05,56,15.00
2014,07,11,05,57,15.00
2014,07,11,05,58,15.10
2014,07,11,05,59,15.10
2014,07,11,06,00,15.10
2014,07,11,06,01,15.10
2014,07,11,06,02,15.10
2014,07,11,06,03,15.10
2014,07,11,06,04,15.10
2014,07,11,06,05,15.10
2014,07,11,06,06,15.10
2014,07,11,06,07,15.10
2014,07,11,06,08,15.10
2014,07,11,06,09,15.10
2014,07,11,06,10,15.10
2014,07,11,06,11,15.10
2014,07,11,06,12,15.10
2014,07,11,06,13,15.10
2014,07,11,06,14,15.00
2014,07,11,06,15,15.00
2014,07,11,06,16,15.00
2014,07,11,06,17,14.90
2014,07,11,06,18,14.90
2014,07,11,06,19,14.90
2014,07,11,06,20,15.00
2014,07,11,06,21,15.00
2014,07,11,06,22,15.00
2014,07,11,06,23,15.00
2014,07,11,06,24,15.00
2014,07,11,06,25,15.00
2014,07,11,06,26,15.00
2014,07,11,06,27,15.00
2014,07,11,06,28,15.00
2014,07,11,06,29,15.00
2014,07,11,06,30,15.00
2014,07,11,06,31,15.00
2014,07,11,06,32,15.00
2014,07,11,06,33,15.00
2014,07,11,06,34,15.00
2014,07,11,06,35,15.00
2014,07,11,06,36,15.00
2014,07,11,06,37,15.10
2014,07,11,06,38,15.10
2014,07,11,06,39,15.10
2014,07,11,06,40,15.10
2014,07,11,06,41,15.10
2014,07,11,06,42,15.10
2014,07,11,06,43,15.10
2014,07,11,06,44,15.10
2014,07,11,06,45,15.10
2014,07,11,06,46,15.10
2014,07,11,06,47,15.10
2014,07,11,06,48,15.10
2014,07,11,06,49,15.10
2014,07,11,06,50,15.10
2014,07,11,06,51,15.10
2014,07,11,06,52,15.10
2014,07,11,06,53,15.10
2014,07,11,06,54,15.10
2014,07,11,06,55,15.10
2014,07,11,06,56,15.10
2014,07,11,06,57,15.20
2014,07,11,06,58,15.20
2014,07,11,06,59,15.20
2014,07,11,07,00,15.20
2014,07,11,07,01,15.20
2014,07,11,07,02,15.10
2014,07,11,07,03,15.20
2014,07,11,07,04,15.20
2014,07,11,07,05,15.20
2014,07,11,07,06,15.10
2014,07,11,07,07,15.10
2014,07,11,07,08,15.20
2014,07,11,07,09,15.20
2014,07,11,07,10,15.20
2014,07,11,07,11,15.20
2014,07,11,07,12,15.20
2014,07,11,07,13,15.20
2014,07,11,07,14,15.20
2014,07,11,07,15,15.20
2014,07,11,07,16,15.20
2014,07,11,07,17,15.30
2014,07,11,07,18,15.30
2014,07,11,07,19,15.30
2014,07,11,07,20,15.30
2014,07,11,07,21,15.30
2014,07,11,07,22,15.30
2014,07,11,07,23,15.30
2014,07,11,07,24,15.40
2014,07,11,07,25,15.40
2014,07,11,07,26,15.40
2014,07,11,07,27,15.40
2014,07,11,07,28,15.40
2014,07,11,07,29,15.40
2014,07,11,07,30,15.40
2014,07,11,07,31,15.40
2014,07,11,07,32,15.40
2014,07,11,07,33,15.40
2014,07,11,07,34,15.40
2014,07,11,07,35,15.40
2014,07,11,07,36,15.40
2014,07,11,07,37,15.50
2014,07,11,07,38,15.50
2014,07,11,07,39,15.50
2014,07,11,07,40,15.50
2014,07,11,07,41,15.50
2014,07,11,07,42,15.50
2014,07,11,07,43,15.50
2014,07,11,07,44,15.50
2014,07,11,07,45,15.50
2014,07,11,07,46,15.60
2014,07,11,07,47,15.60
2014,07,11,07,48,15.60
2014,07,11,07,49,15.70
2014,07,11,07,50,15.70
2014,07,11,07,51,15.70
2014,07,11,07,52,15.70
2014,07,11,07,53,15.80
2014,07,11,07,54,15.80
2014,07,11,07,55,15.80
2014,07,11,07,56,15.90
2014,07,11,07,57,15.90
2014,07,11,07,58,15.90
2014,07,11,07,59,15.90
2014,07,11,08,00,16.00
2014,07,11,08,01,16.00
2014,07,11,08,02,16.00
2014,07,11,08,03,16.10
2014,07,11,08,04,16.10
2014,07,11,08,05,16.10
2014,07,11,08,06,16.10
2014,07,11,08,07,16.20
2014,07,11,08,08,16.20
2014,07,11,08,09,16.20
2014,07,11,08,10,16.20
2014,07,11,08,11,16.20
2014,07,11,08,12,16.30
2014,07,11,08,13,16.30
2014,07,11,08,14,16.20
2014,07,11,08,15,16.20
2014,07,11,08,16,16.20
2014,07,11,08,17,16.20
2014,07,11,08,18,16.20
2014,07,11,08,19,16.20
2014,07,11,08,20,16.30
2014,07,11,08,21,16.30
2014,07,11,08,22,16.30
2014,07,11,08,23,16.30
2014,07,11,08,24,16.40
2014,07,11,08,25,16.40
2014,07,11,08,26,16.40
2014,07,11,08,27,16.50
2014,07,11,08,28,16.50
2014,07,11,08,29,16.60
2014,07,11,08,30,16.60
2014,07,11,08,31,16.60
2014,07,11,08,32,16.70
2014,07,11,08,33,16.70
2014,07,11,08,34,16.70
2014,07,11,08,35,16.70
2014,07,11,08,36,16.70
2014,07,11,08,37,16.70
2014,07,11,08,38,16.70
2014,07,11,08,39,16.80
2014,07,11,08,40,16.80
2014,07,11,08,41,16.90
2014,07,11,08,42,16.90
2014,07,11,08,43,17.00
2014,07,11,08,44,17.00
2014,07,11,08,45,17.00
2014,07,11,08,46,17.10
2014,07,11,08,47,17.10
2014,07,11,08,48,17.10
2014,07,11,08,49,17.10
2014,07,11,08,50,17.20
2014,07,11,08,51,17.20
2014,07,11,08,52,17.20
2014,07,11,08,53,17.20
2014,07,11,08,54,17.20
2014,07,11,08,55,17.20
2014,07,11,08,56,17.20
2014,07,11,08,57,17.20
2014,07,11,08,58,17.30
2014,07,11,08,59,17.30
2014,07,11,09,00,17.30
2014,07,11,09,01,17.40
2014,07,11,09,02,17.40
2014,07,11,09,03,17.50
2014,07,11,09,04,17.50
2014,07,11,09,05,17.60
2014,07,11,09,06,17.60
2014,07,11,09,07,17.60
2014,07,11,09,08,17.60
2014,07,11,09,09,17.60
2014,07,11,09,10,17.70
2014,07,11,09,11,17.70
2014,07,11,09,12,17.70
2014,07,11,09,13,17.70
2014,07,11,09,14,17.80
2014,07,11,09,15,17.80
2014,07,11,09,16,17.80
2014,07,11,09,17,17.90
2014,07,11,09,18,17.90
2014,07,11,09,19,18.00
2014,07,11,09,20,18.00
2014,07,11,09,21,18.10
2014,07,11,09,22,18.10
2014,07,11,09,23,18.20
2014,07,11,09,24,18.30
2014,07,11,09,25,18.30
2014,07,11,09,26,18.30
2014,07,11,09,27,18.30
2014,07,11,09,28,18.40
2014,07,11,09,29,18.40
2014,07,11,09,30,18.40
2014,07,11,09,31,18.40
2014,07,11,09,32,18.50
2014,07,11,09,33,18.60
2014,07,11,09,34,18.60
2014,07,11,09,35,18.60
2014,07,11,09,36,18.60
2014,07,11,09,37,18.60
2014,07,11,09,38,18.70
2014,07,11,09,39,18.70
2014,07,11,09,40,18.70
2014,07,11,09,41,18.70
2014,07,11,09,42,18.80
2014,07,11,09,43,18.80
2014,07,11,09,44,18.80
2014,07,11,09,45,18.70
2014,07,11,09,46,18.70
2014,07,11,09,47,18.80
2014,07,11,09,48,18.80
2014,07,11,09,49,18.80
2014,07,11,09,50,18.80
2014,07,11,09,51,18.90
2014,07,11,09,52,19.00
2014,07,11,09,53,19.10
2014,07,11,09,54,19.10
2014,07,11,09,55,19.30
2014,07,11,09,56,19.30
2014,07,11,09,57,19.50
2014,07,11,09,58,19.50
2014,07,11,09,59,19.60
2014,07,11,10,00,19.60
2014,07,11,10,01,19.60
2014,07,11,10,02,19.60
2014,07,11,10,03,19.60
2014,07,11,10,04,19.60
2014,07,11,10,05,19.60
2014,07,11,10,06,19.70
2014,07,11,10,07,19.70
2014,07,11,10,08,19.70
2014,07,11,10,09,19.70
2014,07,11,10,10,19.70
2014,07,11,10,11,19.70
2014,07,11,10,12,19.70
2014,07,11,10,13,19.80
2014,07,11,10,14,19.80
2014,07,11,10,15,19.80
2014,07,11,10,16,19.90
2014,07,11,10,17,19.90
2014,07,11,10,18,20.00
2014,07,11,10,19,20.00
2014,07,11,10,20,20.10
2014,07,11,10,21,20.20
2014,07,11,10,22,20.30
2014,07,11,10,23,20.30
2014,07,11,10,24,20.30
2014,07,11,10,25,20.40
2014,07,11,10,26,20.40
2014,07,11,10,27,20.40
2014,07,11,10,28,20.50
2014,07,11,10,29,20.50
2014,07,11,10,30,20.50
2014,07,11,10,31,20.60
2014,07,11,10,32,20.60
2014,07,11,10,33,20.60
2014,07,11,10,34,20.60
2014,07,11,10,35,20.60
2014,07,11,10,36,20.60
2014,07,11,10,37,20.70
2014,07,11,10,38,20.70
2014,07,11,10,39,20.80
2014,07,11,10,40,20.80
2014,07,11,10,41,20.90
2014,07,11,10,42,20.90
2014,07,11,10,43,20.90
2014,07,11,10,44,20.90
2014,07,11,10,45,20.90
2014,07,11,10,46,21.00
2014,07,11,10,47,21.10
2014,07,11,10,48,21.10
2014,07,11,10,49,21.20
2014,07,11,10,50,21.20
2014,07,11,10,51,21.30
2014,07,11,10,52,21.30
2014,07,11,10,53,21.30
2014,07,11,10,54,21.30
2014,07,11,10,55,21.30
2014,07,11,10,56,21.20
2014,07,11,10,57,21.20
2014,07,11,10,58,21.30
2014,07,11,10,59,21.30
2014,07,11,11,00,21.40
2014,07,11,11,01,21.50
2014,07,11,11,02,21.50
2014,07,11,11,03,21.60
2014,07,11,11,04,21.60
2014,07,11,11,05,21.70
2014,07,11,11,06,21.70
2014,07,11,11,07,21.70
2014,07,11,11,08,21.80
2014,07,11,11,09,21.80
2014,07,11,11,10,21.90
2014,07,11,11,11,21.90
2014,07,11,11,12,21.90
2014,07,11,11,13,21.90
2014,07,11,11,14,22.00
2014,07,11,11,15,22.00
2014,07,11,11,16,22.00
2014,07,11,11,17,22.00
2014,07,11,11,18,22.00
2014,07,11,11,19,22.10
2014,07,11,11,20,22.10
2014,07,11,11,21,22.20
2014,07,11,11,22,22.20
2014,07,11,11,23,22.20
2014,07,11,11,24,22.20
2014,07,11,11,25,22.20
2014,07,11,11,26,22.30
2014,07,11,11,27,22.30
2014,07,11,11,28,22.40
2014,07,11,11,29,22.50
2014,07,11,11,30,22.50
2014,07,11,11,31,22.50
2014,07,11,11,32,22.60
2014,07,11,11,33,22.60
2014,07,11,11,34,22.60
2014,07,11,11,35,22.70
2014,07,11,11,36,22.70
2014,07,11,11,37,22.70
2014,07,11,11,38,22.80
2014,07,11,11,39,22.90
2014,07,11,11,40,22.90
2014,07,11,11,41,23.00
2014,07,11,11,42,23.10
2014,07,11,11,43,23.10
2014,07,11,11,44,23.10
2014,07,11,11,45,23.20
2014,07,11,11,46,23.30
2014,07,11,11,47,23.30
2014,07,11,11,48,23.40
2014,07,11,11,49,23.40
2014,07,11,11,50,23.30
2014,07,11,11,51,23.30
2014,07,11,11,52,23.30
2014,07,11,11,53,23.30
2014,07,11,11,54,23.40
2014,07,11,11,55,23.40
2014,07,11,11,56,23.40
2014,07,11,11,57,23.50
2014,07,11,11,58,23.50
2014,07,11,11,59,23.60
2014,07,11,12,00,23.60
2014,07,11,12,01,23.70
2014,07,11,12,02,23.70
2014,07,11,12,03,23.80
2014,07,11,12,04,23.80
2014,07,11,12,05,23.90
2014,07,11,12,06,23.90
2014,07,11,12,07,23.90
2014,07,11,12,08,23.90
2014,07,11,12,09,23.90
2014,07,11,12,10,23.90
2014,07,11,12,11,24.00
2014,07,11,12,12,24.00
2014,07,11,12,13,24.00
2014,07,11,12,14,24.10
2014,07,11,12,15,24.20
2014,07,11,12,16,24.30
2014,07,11,12,17,24.30
2014,07,11,12,18,24.50
2014,07,11,12,19,24.50
2014,07,11,12,20,24.60
2014,07,11,12,21,24.60
2014,07,11,12,22,24.60
2014,07,11,12,23,24.60
2014,07,11,12,24,24.60
2014,07,11,12,25,24.60
2014,07,11,12,26,24.60
2014,07,11,12,27,24.60
2014,07,11,12,28,24.70
2014,07,11,12,29,24.70
2014,07,11,12,30,24.80
2014,07,11,12,31,24.90
2014,07,11,12,32,25.00
2014,07,11,12,33,25.10
2014,07,11,12,34,25.20
2014,07,11,12,35,25.20
2014,07,11,12,36,25.20
2014,07,11,12,37,25.10
2014,07,11,12,38,25.10
2014,07,11,12,39,25.10
2014,07,11,12,40,25.10
2014,07,11,12,41,25.10
2014,07,11,12,42,25.10
2014,07,11,12,43,25.10
2014,07,11,12,44,25.10
2014,07,11,12,45,25.00
2014,07,11,12,46,24.90
2014,07,11,12,47,24.90
2014,07,11,12,48,24.90
2014,07,11,12,49,25.00
2014,07,11,12,50,25.10
2014,07,11,12,51,25.20
2014,07,11,12,52,25.20
2014,07,11,12,53,25.30
2014,07,11,12,54,25.50
2014,07,11,12,55,25.60
2014,07,11,12,56,25.60
2014,07,11,12,57,25.60
2014,07,11,12,58,25.70
2014,07,11,12,59,25.70
2014,07,11,13,00,25.80
2014,07,11,13,01,25.90
2014,07,11,13,02,26.00
2014,07,11,13,03,26.20
2014,07,11,13,04,26.30
2014,07,11,13,05,26.30
2014,07,11,13,06,26.40
2014,07,11,13,07,26.50
2014,07,11,13,08,26.60
2014,07,11,13,09,26.70
2014,07,11,13,10,26.80
2014,07,11,13,11,26.90
2014,07,11,13,12,27.00
2014,07,11,13,13,27.00
2014,07,11,13,14,27.00
2014,07,11,13,15,27.00
2014,07,11,13,16,27.10
2014,07,11,13,17,27.10
2014,07,11,13,18,27.10
2014,07,11,13,19,27.10
2014,07,11,13,20,27.10
2014,07,11,13,21,27.00
2014,07,11,13,22,26.90
2014,07,11,13,23,26.70
2014,07,11,13,24,26.60
2014,07,11,13,25,26.40
2014,07,11,13,26,26.20
2014,07,11,13,27,26.10
2014,07,11,13,28,26.00
2014,07,11,13,29,26.00
2014,07,11,13,30,26.00
2014,07,11,13,31,26.10
2014,07,11,13,32,26.30
2014,07,11,13,33,26.40
2014,07,11,13,34,26.50
2014,07,11,13,35,26.50
2014,07,11,13,36,26.50
2014,07,11,13,37,26.40
2014,07,11,13,38,26.30
2014,07,11,13,39,26.30
2014,07,11,13,40,26.40
2014,07,11,13,41,26.40
2014,07,11,13,42,26.40
2014,07,11,13,43,26.40
2014,07,11,13,44,26.50
2014,07,11,13,45,26.50
2014,07,11,13,46,26.60
2014,07,11,13,47,26.50
2014,07,11,13,48,26.50
2014,07,11,13,49,26.60
2014,07,11,13,50,26.70
2014,07,11,13,51,26.80
2014,07,11,13,52,26.80
2014,07,11,13,53,26.80
2014,07,11,13,54,26.80
2014,07,11,13,55,26.70
2014,07,11,13,56,26.70
2014,07,11,13,57,26.80
2014,07,11,13,58,26.80
2014,07,11,13,59,26.80
2014,07,11,14,00,26.80
2014,07,11,14,01,26.70
2014,07,11,14,02,26.70
2014,07,11,14,03,26.70
2014,07,11,14,04,26.70
2014,07,11,14,05,26.60
2014,07,11,14,06,26.60
2014,07,11,14,07,26.50
2014,07,11,14,08,26.50
2014,07,11,14,09,26.50
2014,07,11,14,10,26.60
2014,07,11,14,11,26.60
2014,07,11,14,12,26.50
2014,07,11,14,13,26.50
2014,07,11,14,14,26.40
2014,07,11,14,15,26.40
2014,07,11,14,16,26.40
2014,07,11,14,17,26.50
2014,07,11,14,18,26.50
2014,07,11,14,19,26.60
2014,07,11,14,20,26.60
2014,07,11,14,21,26.70
2014,07,11,14,22,26.80
2014,07,11,14,23,26.80
2014,07,11,14,24,26.80
2014,07,11,14,25,26.80
2014,07,11,14,26,26.80
2014,07,11,14,27,26.80
2014,07,11,14,28,26.90
2014,07,11,14,29,26.90
2014,07,11,14,30,27.10
2014,07,11,14,31,27.20
2014,07,11,14,32,27.40
2014,07,11,14,33,27.50
2014,07,11,14,34,27.60
2014,07,11,14,35,27.60
2014,07,11,14,36,27.60
2014,07,11,14,37,27.70
2014,07,11,14,38,27.60
2014,07,11,14,39,27.60
2014,07,11,14,40,27.60
2014,07,11,14,41,27.60
2014,07,11,14,42,27.70
2014,07,11,14,43,27.80
2014,07,11,14,44,27.70
2014,07,11,14,45,27.70
2014,07,11,14,46,27.70
2014,07,11,14,47,27.80
2014,07,11,14,48,27.80
2014,07,11,14,49,27.90
2014,07,11,14,50,28.00
2014,07,11,14,51,28.10
2014,07,11,14,52,28.20
2014,07,11,14,53,28.30
2014,07,11,14,54,28.40
2014,07,11,14,55,28.30
2014,07,11,14,56,28.30
2014,07,11,14,57,28.30
2014,07,11,14,58,28.20
2014,07,11,14,59,28.10
2014,07,11,15,00,28.10
2014,07,11,15,01,28.10
2014,07,11,15,02,28.10
2014,07,11,15,03,28.10
2014,07,11,15,04,28.00
2014,07,11,15,05,28.00
2014,07,11,15,06,28.10
2014,07,11,15,07,28.20
2014,07,11,15,08,28.30
2014,07,11,15,09,28.40
2014,07,11,15,10,28.40
2014,07,11,15,11,28.50
2014,07,11,15,12,28.50
2014,07,11,15,13,28.50
2014,07,11,15,14,28.60
2014,07,11,15,15,28.60
2014,07,11,15,16,28.70
2014,07,11,15,17,28.70
2014,07,11,15,18,28.80
2014,07,11,15,19,28.80
2014,07,11,15,20,28.80
2014,07,11,15,21,28.80
2014,07,11,15,22,28.80
2014,07,11,15,23,28.80
2014,07,11,15,24,28.90
2014,07,11,15,25,29.00
2014,07,11,15,26,29.10
2014,07,11,15,27,29.30
2014,07,11,15,28,29.30
2014,07,11,15,29,29.40
2014,07,11,15,30,29.50
2014,07,11,15,31,29.60
2014,07,11,15,32,29.60
2014,07,11,15,33,29.60
2014,07,11,15,34,29.70
2014,07,11,15,35,29.70
2014,07,11,15,36,29.80
2014,07,11,15,37,29.90
2014,07,11,15,38,30.00
2014,07,11,15,39,30.00
2014,07,11,15,40,29.90
2014,07,11,15,41,29.90
2014,07,11,15,42,29.90
2014,07,11,15,43,29.90
2014,07,11,15,44,29.90
2014,07,11,15,45,29.90
2014,07,11,15,46,29.80
2014,07,11,15,47,29.90
2014,07,11,15,48,30.00
2014,07,11,15,49,30.00
2014,07,11,15,50,30.10
2014,07,11,15,51,30.20
2014,07,11,15,52,30.20
2014,07,11,15,53,30.30
2014,07,11,15,54,30.30
2014,07,11,15,55,30.40
2014,07,11,15,56,30.40
2014,07,11,15,57,30.40
2014,07,11,15,58,30.50
2014,07,11,15,59,30.50
2014,07,11,16,00,30.60
2014,07,11,16,01,30.60
2014,07,11,16,02,30.70
2014,07,11,16,03,30.70
2014,07,11,16,04,30.70
2014,07,11,16,05,30.70
2014,07,11,16,06,30.70
2014,07,11,16,07,30.80
2014,07,11,16,08,30.80
2014,07,11,16,09,30.80
2014,07,11,16,10,30.80
2014,07,11,16,11,30.80
2014,07,11,16,12,30.80
2014,07,11,16,13,30.80
2014,07,11,16,14,30.80
2014,07,11,16,15,30.90
2014,07,11,16,16,30.90
2014,07,11,16,17,30.90
2014,07,11,16,18,30.90
2014,07,11,16,19,31.00
2014,07,11,16,20,31.10
2014,07,11,16,21,31.10
2014,07,11,16,22,31.00
2014,07,11,16,23,31.00
2014,07,11,16,24,30.90
2014,07,11,16,25,30.90
2014,07,11,16,26,30.90
2014,07,11,16,27,31.00
2014,07,11,16,28,31.00
2014,07,11,16,29,31.10
2014,07,11,16,30,31.10
2014,07,11,16,31,31.20
2014,07,11,16,32,31.20
2014,07,11,16,33,31.20
2014,07,11,16,34,31.20
2014,07,11,16,35,31.30
2014,07,11,16,36,31.30
2014,07,11,16,37,31.20
2014,07,11,16,38,31.20
2014,07,11,16,39,31.20
2014,07,11,16,40,31.30
2014,07,11,16,41,31.30
2014,07,11,16,42,31.30
2014,07,11,16,43,31.30
2014,07,11,16,44,31.30
2014,07,11,16,45,31.40
2014,07,11,16,46,31.30
2014,07,11,16,47,31.30
2014,07,11,16,48,31.30
2014,07,11,16,49,31.30
2014,07,11,16,50,31.30
2014,07,11,16,51,31.30
2014,07,11,16,52,31.30
2014,07,11,16,53,31.30
2014,07,11,16,54,31.30
2014,07,11,16,55,31.30
2014,07,11,16,56,31.40
2014,07,11,16,57,31.30
2014,07,11,16,58,31.30
2014,07,11,16,59,31.30
2014,07,11,17,00,31.30
2014,07,11,17,01,31.40
2014,07,11,17,02,31.40
2014,07,11,17,03,31.40
2014,07,11,17,04,31.40
2014,07,11,17,05,31.50
2014,07,11,17,06,31.50
2014,07,11,17,07,31.60
2014,07,11,17,08,31.60
2014,07,11,17,09,31.70
2014,07,11,17,10,31.70
2014,07,11,17,11,31.70
2014,07,11,17,12,31.70
2014,07,11,17,13,31.70
2014,07,11,17,14,31.70
2014,07,11,17,15,31.80
2014,07,11,17,16,31.80
2014,07,11,17,17,31.90
2014,07,11,17,18,31.90
2014,07,11,17,19,32.00